This is the latest recevied weather packets stored in our database for station/object KC8BSD. If no packets are shown the sender has not sent any weather packets the latest 1 day(s).
| Time | Temp. | Humidity | Pressure | Rain* | Wind** | Luminosity | Snow |
|---|---|---|---|---|---|---|---|
| 1778034149 | 10° C | 54% | 1010.2 hPa | 0 mm | 0.45 m/s, 313° | 0 W/m² | - |
| 1778033846 | 10° C | 54% | 1009.9 hPa | 0 mm | 0.45 m/s, 324° | 0 W/m² | - |
| 1778033543 | 10° C | 53% | 1009.8 hPa | 0 mm | 0.45 m/s, 2° | 0 W/m² | - |
| 1778033240 | 10° C | 53% | 1009.9 hPa | 0 mm | 0 m/s | 0 W/m² | - |
| 1778032938 | 10° C | 54% | 1010 hPa | 0 mm | 0.45 m/s, 314° | 0 W/m² | - |
| 1778032636 | 10° C | 52% | 1010.2 hPa | 0 mm | 0.89 m/s, 38° | 0 W/m² | - |
| 1778032333 | 10° C | 53% | 1010.1 hPa | 0 mm | 0.45 m/s, 301° | 0 W/m² | - |
| 1778032030 | 10° C | 52% | 1010 hPa | 0 mm | 0.45 m/s, 313° | 0 W/m² | - |
| 1778031725 | 10° C | 53% | 1009.8 hPa | 0 mm | 0.45 m/s, 269° | 0 W/m² | - |
| 1778031423 | 10° C | 53% | 1009.6 hPa | 0 mm | 0 m/s | 0 W/m² | - |
| 1778031120 | 10° C | 52% | 1009.9 hPa | 0 mm | 0.45 m/s, 338° | 0 W/m² | - |
| 1778030816 | 10° C | 52% | 1009.6 hPa | 0 mm | 0.45 m/s, 59° | 0 W/m² | - |
| 1778030513 | 10° C | 51% | 1009.4 hPa | 0 mm | 0 m/s | 0 W/m² | - |
| 1778030211 | 10° C | 51% | 1009.6 hPa | 0 mm | 0 m/s | 0 W/m² | - |
| 1778029907 | 10° C | 51% | 1009.6 hPa | 0 mm | 0 m/s | 0 W/m² | - |
| 1778029606 | 10° C | 51% | 1009.3 hPa | 0 mm | 0 m/s | 0 W/m² | - |
| 1778029302 | 10.56° C | 50% | 1009.5 hPa | 0 mm | 0.89 m/s, 36° | 0 W/m² | - |
| 1778028999 | 10.56° C | 51% | 1009.5 hPa | 0 mm | 0.45 m/s, 51° | 0 W/m² | - |
| 1778028697 | 10.56° C | 50% | 1009.7 hPa | 0 mm | 0.89 m/s, 252° | 0 W/m² | - |
| 1778028393 | 10.56° C | 50% | 1009.4 hPa | 0 mm | 0.45 m/s, 333° | 0 W/m² | - |
| 1778028090 | 10.56° C | 50% | 1009.5 hPa | 0 mm | 0 m/s | 0 W/m² | - |
| 1778027786 | 10.56° C | 49% | 1009.7 hPa | 0 mm | 0.45 m/s, 272° | 0 W/m² | - |
| 1778027483 | 10.56° C | 50% | 1009.6 hPa | 0 mm | 0.45 m/s, 38° | 0 W/m² | - |
| 1778027179 | 10.56° C | 48% | 1009.6 hPa | 0 mm | 0.45 m/s, 354° | 0 W/m² | - |
| 1778026875 | 10.56° C | 47% | 1009.6 hPa | 0 mm | 0.89 m/s, 51° | 2 W/m² | - |
* Rain latest hour (hover to see other rain measurements)
** Current wind speed in m/s (hover to see current wind gust speed)